Flag for U.S.A. Weather past 2 weeks in West Palm Beach, Florida, U.S.A.

79 °F

Broken clouds.

Feels Like: 82 °F
Forecast: 74 / 80 °F
Wind: 14 mph from East

Location: Palm Beach International Airport

Current Time: Nov 30, 2015 at 2:39:36 PM

Latest Report: Nov 30, 2015 at 1:53 PM

Visibility: 10 mi

Pressure: 30.01 "Hg

Humidity: 72%

Dew point: 69 °F

Location of West Palm BeachLocation

Historic Weather in West Palm Beach — Graph


West Palm Beach temperature yesterday

Maximum temperature yesterday: 81 °F (at 12:53 PM)
Minimum temperature yesterday: 62 °F (at 6:53 AM)
Average temperature yesterday: 74 °F

Past Weeks' High & Low Weather Summary

High86 °F (Nov 20, 12:53 PM)100% (Nov 22, 5:53 AM)30.33 "Hg (Nov 22, 5:53 AM)
Low61 °F (Nov 23, 6:53 AM)39% (Nov 28, 9:53 AM)29.78 "Hg (Nov 22, 1:53 PM)
Average76 °F70%30.07 "Hg
* Reported Nov 15 12:53 PM — Nov 30 12:53 PM, West Palm Beach, Weather by CustomWeather, © 2015

Note: Actual official high and low records may vary slightly from our data, if they occured in-between our weather recording intervals... More about our weather records


West Palm Beach weather history for previous 24 hours

Time TempWeatherWind HumidityBarometerVisibility
12:53 PM
Mon, Nov 30
81 °FScattered clouds.14 mph67%30.02 "Hg10 mi
11:53 AM80 °FScattered clouds.16 mph67%30.05 "Hg10 mi
10:53 AM80 °FScattered clouds.14 mph67%30.07 "Hg10 mi
9:53 AM79 °FBroken clouds.15 mph72%30.07 "Hg10 mi
8:53 AM78 °FBroken clouds.12 mph71%30.06 "Hg10 mi
7:53 AM76 °FScattered clouds.13 mph74%30.04 "Hg10 mi
6:53 AM75 °FScattered clouds.8 mph76%30.03 "Hg10 mi
5:53 AM75 °FPassing clouds.8 mph74%30.01 "Hg10 mi
4:53 AM75 °FPassing clouds.9 mph74%29.99 "Hg10 mi
3:53 AM75 °FPassing clouds.9 mph71%29.99 "Hg10 mi
2:53 AM75 °FPassing clouds.10 mph74%29.99 "Hg10 mi
1:53 AM75 °FPassing clouds.12 mph74%30.01 "Hg10 mi
12:53 AM76 °FPassing clouds.10 mph72%30.02 "Hg10 mi
11:53 PM
Sun, Nov 29
76 °FPassing clouds.10 mph69%30.03 "Hg10 mi
10:53 PM76 °FPassing clouds.10 mph72%30.03 "Hg10 mi
9:53 PM76 °FPassing clouds.13 mph69%30.04 "Hg10 mi
8:53 PM76 °FPartly cloudy.13 mph72%30.04 "Hg10 mi
7:53 PM75 °FLight rain. Passing clouds.7 mph74%30.03 "Hg10 mi
6:53 PM77 °FPassing clouds.13 mph66%30.03 "Hg10 mi
5:53 PM76 °FPassing clouds.10 mph69%30.01 "Hg10 mi
4:53 PM77 °FBroken clouds.12 mph60%30.01 "Hg10 mi
3:53 PM79 °FPartly sunny.14 mph58%30.01 "Hg10 mi
2:53 PM79 °FScattered clouds.14 mph56%30.01 "Hg10 mi
Weather by CustomWeather, © 2015

See weather overviewHow to use our weather pages